TimeEST,TemperatureF,Dew PointF,Humidity,Sea Level PressureIn,VisibilityMPH,Wind Direction,Wind SpeedMPH,Gust SpeedMPH,PrecipitationIn,Events,Conditions,WindDirDegrees,DateUTC
12:14 AM,37.4,28.4,70,30.11,10.0,NNW,8.1,-,N/A,,Overcast,340,2012-11-05 05:14:00
12:35 AM,37.4,28.4,70,30.11,10.0,NNW,9.2,-,N/A,,Overcast,330,2012-11-05 05:35:00
12:56 AM,37.4,28.4,70,30.11,10.0,NNW,9.2,-,N/A,,Overcast,330,2012-11-05 05:56:00
1:18 AM,37.4,28.4,70,30.11,10.0,NW,4.6,-,N/A,,Mostly Cloudy,320,2012-11-05 06:18:00
1:39 AM,37.4,28.4,70,30.10,10.0,NNW,11.5,16.1,N/A,,Overcast,330,2012-11-05 06:39:00
2:00 AM,37.4,28.4,70,30.11,10.0,NNW,4.6,-,N/A,,Overcast,330,2012-11-05 07:00:00
2:22 AM,37.4,28.4,70,30.10,10.0,North,10.4,-,N/A,,Overcast,350,2012-11-05 07:22:00
2:43 AM,37.4,26.6,65,30.10,10.0,NW,11.5,21.9,N/A,,Overcast,320,2012-11-05 07:43:00
3:04 AM,37.4,26.6,65,30.10,10.0,NW,8.1,-,N/A,,Overcast,320,2012-11-05 08:04:00
3:25 AM,37.4,26.6,65,30.10,10.0,NW,5.8,-,N/A,,Overcast,320,2012-11-05 08:25:00
3:47 AM,37.4,28.4,70,30.11,10.0,NNW,5.8,-,N/A,,Overcast,330,2012-11-05 08:47:00
4:08 AM,37.4,26.6,65,30.11,10.0,NNW,6.9,-,N/A,,Overcast,330,2012-11-05 09:08:00
4:29 AM,37.4,28.4,70,30.11,10.0,NW,9.2,-,N/A,,Overcast,320,2012-11-05 09:29:00
4:51 AM,37.4,28.4,70,30.12,10.0,NNW,13.8,18.4,N/A,,Overcast,330,2012-11-05 09:51:00
5:12 AM,37.4,28.4,70,30.12,10.0,NW,10.4,18.4,N/A,,Overcast,320,2012-11-05 10:12:00
5:33 AM,37.4,28.4,70,30.12,10.0,NW,9.2,-,N/A,,Overcast,310,2012-11-05 10:33:00
5:54 AM,37.4,28.4,70,30.13,10.0,NNW,5.8,16.1,N/A,,Overcast,330,2012-11-05 10:54:00
6:16 AM,37.4,28.4,70,30.13,10.0,NNW,5.8,10.4,N/A,,Overcast,340,2012-11-05 11:16:00
6:37 AM,37.4,28.4,70,30.13,10.0,NNW,6.9,-,N/A,,Overcast,330,2012-11-05 11:37:00
6:58 AM,37.4,28.4,70,30.13,10.0,North,10.4,17.3,N/A,,Overcast,350,2012-11-05 11:58:00
7:19 AM,37.4,28.4,70,30.14,10.0,NW,6.9,-,N/A,,Overcast,320,2012-11-05 12:19:00
7:41 AM,37.4,28.4,70,30.15,10.0,NNW,5.8,-,N/A,,Overcast,330,2012-11-05 12:41:00
8:02 AM,39.2,28.4,65,30.15,10.0,North,6.9,-,N/A,,Overcast,360,2012-11-05 13:02:00
8:23 AM,39.2,28.4,65,30.15,10.0,WNW,10.4,-,N/A,,Overcast,300,2012-11-05 13:23:00
8:44 AM,39.2,28.4,65,30.16,10.0,NNW,8.1,-,N/A,,Overcast,330,2012-11-05 13:44:00
9:06 AM,39.2,28.4,65,30.15,10.0,NNW,9.2,-,N/A,,Overcast,330,2012-11-05 14:06:00
9:27 AM,41.0,28.4,61,30.16,10.0,NW,8.1,-,N/A,,Overcast,320,2012-11-05 14:27:00
9:48 AM,41.0,28.4,61,30.16,10.0,NNW,11.5,16.1,N/A,,Overcast,330,2012-11-05 14:48:00
10:30 AM,41.0,28.4,61,30.17,10.0,NW,6.9,-,N/A,,Overcast,310,2012-11-05 15:30:00
10:52 AM,41.0,28.4,61,30.17,10.0,WNW,9.2,-,N/A,,Overcast,300,2012-11-05 15:52:00
11:13 AM,41.0,30.2,65,30.17,10.0,NNW,8.1,-,N/A,,Overcast,330,2012-11-05 16:13:00
11:34 AM,41.0,28.4,61,30.17,10.0,NNW,9.2,16.1,N/A,,Overcast,340,2012-11-05 16:34:00
11:55 AM,41.0,28.4,61,30.16,10.0,NNW,11.5,16.1,N/A,,Overcast,340,2012-11-05 16:55:00
12:17 PM,41.0,28.4,61,30.16,10.0,NW,8.1,-,N/A,,Overcast,310,2012-11-05 17:17:00
12:38 PM,41.0,28.4,61,30.15,10.0,NNW,8.1,16.1,N/A,,Mostly Cloudy,340,2012-11-05 17:38:00
12:59 PM,42.8,30.2,61,30.15,10.0,NW,5.8,-,N/A,,Overcast,320,2012-11-05 17:59:00
1:20 PM,44.6,30.2,57,30.14,10.0,NW,6.9,-,N/A,,Mostly Cloudy,320,2012-11-05 18:20:00
1:42 PM,44.6,28.4,53,30.13,10.0,NW,5.8,-,N/A,,Scattered Clouds,310,2012-11-05 18:42:00
2:03 PM,44.6,28.4,53,30.12,10.0,NW,4.6,-,N/A,,Scattered Clouds,310,2012-11-05 19:03:00
2:24 PM,44.6,28.4,53,30.12,10.0,WNW,4.6,-,N/A,,Scattered Clouds,300,2012-11-05 19:24:00
2:45 PM,44.6,28.4,53,30.12,10.0,NNW,5.8,-,N/A,,Clear,340,2012-11-05 19:45:00
3:07 PM,44.6,28.4,53,30.12,10.0,WNW,9.2,16.1,N/A,,Clear,300,2012-11-05 20:07:00
3:28 PM,44.6,28.4,53,30.13,10.0,WNW,5.8,-,N/A,,Clear,300,2012-11-05 20:28:00
3:49 PM,44.6,28.4,53,30.13,10.0,West,5.8,-,N/A,,Clear,280,2012-11-05 20:49:00
4:10 PM,42.8,28.4,57,30.13,10.0,WNW,8.1,-,N/A,,Clear,290,2012-11-05 21:10:00
4:31 PM,42.8,28.4,57,30.13,10.0,WNW,5.8,-,N/A,,Clear,300,2012-11-05 21:31:00
4:53 PM,41.0,28.4,61,30.14,10.0,WNW,8.1,-,N/A,,Clear,300,2012-11-05 21:53:00
5:14 PM,41.0,28.4,61,30.15,10.0,WNW,5.8,-,N/A,,Clear,290,2012-11-05 22:14:00
5:35 PM,39.2,28.4,65,30.15,10.0,NW,4.6,-,N/A,,Clear,310,2012-11-05 22:35:00
5:56 PM,39.2,28.4,65,30.16,10.0,WNW,8.1,-,N/A,,Clear,300,2012-11-05 22:56:00
6:18 PM,39.2,26.6,61,30.17,10.0,NW,5.8,-,N/A,,Clear,310,2012-11-05 23:18:00
6:39 PM,39.2,26.6,61,30.18,10.0,West,5.8,-,N/A,,Clear,280,2012-11-05 23:39:00
7:00 PM,37.4,28.4,70,30.18,10.0,WNW,5.8,-,N/A,,Clear,290,2012-11-06 00:00:00
7:21 PM,37.4,28.4,70,30.18,10.0,WNW,3.5,-,N/A,,Clear,290,2012-11-06 00:21:00
7:43 PM,37.4,28.4,70,30.18,10.0,WNW,5.8,-,N/A,,Clear,290,2012-11-06 00:43:00
8:04 PM,37.4,28.4,70,30.19,10.0,Calm,Calm,-,N/A,,Clear,0,2012-11-06 01:04:00
8:25 PM,33.8,28.4,81,30.19,10.0,NE,3.5,-,N/A,,Clear,40,2012-11-06 01:25:00
9:29 PM,32.0,26.6,80,30.20,10.0,Calm,Calm,-,N/A,,Clear,0,2012-11-06 02:29:00
9:50 PM,32.0,28.4,87,30.21,10.0,Calm,Calm,-,N/A,,Clear,0,2012-11-06 02:50:00
10:12 PM,32.0,28.4,87,30.22,10.0,Calm,Calm,-,N/A,,Clear,0,2012-11-06 03:12:00
10:33 PM,32.0,28.4,87,30.21,7.0,Calm,Calm,-,N/A,,Clear,0,2012-11-06 03:33:00
10:54 PM,32.0,28.4,87,30.21,10.0,Calm,Calm,-,N/A,,Clear,0,2012-11-06 03:54:00
11:15 PM,30.2,28.4,93,30.21,10.0,Calm,Calm,-,N/A,,Clear,0,2012-11-06 04:15:00
11:37 PM,30.2,28.4,93,30.21,10.0,Calm,Calm,-,N/A,,Clear,0,2012-11-06 04:37:00
11:58 PM,30.2,28.4,93,30.21,10.0,Calm,Calm,-,N/A,,Clear,0,2012-11-06 04:58:00